Reflectivity
-20 -20 -20 -20 -20 -20 -20 -20 -20 -20 -20 -20 -20 -20 -20 -20 -20 -20 -20 -20 -20 -20 -20 -20 -20 -20 -20 -20 -20 -20 -20 -20 -20 -20 -20 -20 -20 -20 -20 -20 -20 -20 -20
-20 -20 -20 -20 -20 -20 -20 -20 -20 -20 -20 -20 -20 -20 -20 -20 -20 -20 -20 -20 -20 -20 -20 -20 -20 -20 -20 -20 -20 -20 -20 -20 -20 -20 -20 -20 -20 -20 -20 -20 -20 -20 -20
-20 -20 -20 -20 -20 -20 -20 -20 -20 -20 -20 -20 -20 -20 -20 -20 -20 -20 -20 -20 -20 -20 -20 -20 -20 -20 -20 -20 -20 -20 -20 -20 -20 -20 -20 -20 -20 -20 -20 -20 -20 -20 -20
-20 -20 -20 -20 -20 -20 -20 -20 -20 -20 -20 -20 -20 -20 -20 -20 -20 -20 -20 -20 -20 -20 -20 -20 -20 -20 -20 -20 -20 -20 -20 -20 -20 -20 -20 -20 -20 -20 -20 -20 -20 -20 -20
-20 -20 -20 -20 -20 -20 -20 -20 -20 -20 -20 -20 -20 -20 -20 -20 -20 -20 -20 -20 -20 -20 -20 -20 -20 -20 -20 -20 -20 -20 -20 -20 -20 -20 -20 -20 -20 -20 -20 -20 -20 -20 -20
-20 -20 -20 -20 -20 -20 -20 -20 -20 -20 -20 -20 -20 -20 -20 -20 -20 -20 -20 -20 -20 -20 -20 -20 -20 -20 -20 -20 -20 -20 -20 -20 -20 -20 -20 -20 -20 -20 -20 -20 -20 -20 -20
-8 -20 -20 -20 -20 -20 -20 -20 -20 -20 -20 -3 -20 -20 -20 -20 -20 -20 -20 -20 -20 -20 -20 -20 -20 -20 -20 -20 -20 -20 -20 -20 -20 -20 -20 -20 -20 -20 -20 -20 -20 -20 -20
-20 -17 -20 -20 -20 -13 -20 -20 -20 9 -20 -20 -7 -20 -6 -20 -20 -20 -20 -20 -20 -20 -20 -19 -8 -20 -20 -20 -20 -20 -20 -20 -20 -20 -20 12 -20 -20 -20 -20 -20 -20 -20
-20 -20 -20 -20 -20 -20 -6 -20 -0 21 14 25 20 25 -20 -20 -20 -20 -20 -20 -20 -20 -20 -5 -18 -5 -5 -19 -20 -20 -0 1 -9 -20 -6 -20 -19 -20 -20 -20 -20 -20 -20
-20 -20 -20 -20 -20 -20 -20 -20 -19 -19 21 5 21 19 17 -20 -20 -20 -20 -20 -20 -20 -20 -20 -14 11 9 -5 17 -6 2 8 10 -10 4 4 10 14 -10 -16 -20 -20 -20
-20 -20 -20 -20 -20 13 -18 -20 -20 -20 -20 17 15 17 25 9 16 17 -20 -20 20 12 -20 -20 -18 -10 6 9 -5 20 23 -19 -20 -20 -20 -18 10 18 23 -10 -20 3 -17
-20 -20 -20 -20 -20 -20 -10 -19 -20 -20 -20 21 21 16 15 -20 8 19 2 17 20 3 -19 -17 -3 -11 17 30 29 28 21 10 4 -16 -5 -17 9 19 29 11 -3 21 -7
-20 -20 -20 -20 -20 -20 -20 -20 -20 16 -13 -15 4 12 19 -6 15 18 20 8 28 38 19 1 -8 -6 4 14 27 39 36 20 5 9 2 24 19 10 13 30 29 30 20
-20 -20 -20 -20 -20 -20 -20 -20 -20 -20 -7 6 -20 -20 -18 -14 -1 23 21 -17 17 -18 22 37 28 8 -3 7 5 17 29 37 32 35 32 38 33 29 28 38 34 32 24
-20 -20 -20 -20 -20 -20 -20 -20 -20 -20 -20 -19 3 7 -9 10 4 17 20 20 25 19 10 2 26 15 9 14 20 3 22 27 27 36 35 37 29 34 37 36 31 26 18
-20 -20 -20 -20 -20 -20 -20 -20 -20 -20 -20 -20 -20 -6 -20 -20 -12 -20 2 16 19 25 21 -13 -20 -2 10 15 21 5 24 27 30 29 35 25 23 31 31 30 31 21 9
-20 -20 -20 -20 -20 -20 -20 -20 -20 -20 -20 -20 -20 -20 -20 -4 -13 -20 -5 -16 -16 -2 12 9 -11 10 26 21 22 21 25 28 31 28 34 29 24 27 28 16 5 3 -5
-20 -20 -20 -20 -20 -20 -20 -20 -20 -20 -20 -20 4 -20 -20 -20 -20 6 4 10 3 11 -10 8 20 24 36 25 28 14 32 28 29 24 31 26 9 21 11 -11 4 -12 -20
-20 -20 -20 -20 -20 -20 -20 -20 -20 -20 -20 -20 -20 -20 -13 2 -19 6 3 10 4 -20 -6 23 24 5 29 28 33 34 25 35 20 23 23 12 3 -3 -13 -20 -20 -20 -20
-20 -20 -20 -20 -20 -20 -20 -20 -20 -20 -20 -20 -20 -20 -20 -20 -20 -18 -15 -19 -7 -15 9 2 -4 13 23 23 33 27 25 22 21 11 7 -3 -20 -20 -20 -20 -20 -20 -20
-20 -20 -20 -20 -20 -20 -20 -20 -20 -20 -20 -20 -20 -20 -20 -20 -6 1 -20 -20 -17 -19 21 32 22 14 2 4 5 19 1 7 9 -16 -20 -20 -20 -20 -20 -20 -20 -20 -20
-20 -20 -20 -20 -20 -20 15 11 -20 -20 -20 -20 -20 -20 -20 -20 -4 11 3 2 2 2 -20 -20 -11 -20 -13 -13 -14 -6 -14 -20 -20 -20 -20 -20 -20 -20 -20 -20 -20 -20 -20
-20 -20 -20 -20 -20 -20 2 1 -2 -20 -20 -20 -20 -20 -20 -20 -20 -20 -15 -19 -10 0 8 -20 -20 -20 -20 -20 -20 -20 -20 -20 -20 -20 -20 -20 -20 -20 -20 -20 -20 -20 -20
-20 -20 -20 -20 -20 -14 -13 -20 -20 -20 -20 -20 -20 -20 -20 -20 -20 -20 -20 -20 -20 -20 -20 -20 -20 -20 -20 -20 -20 -20 -20 -20 -20 -20 -20 -20 -20 -20 -20 -20 -20 -20 -20
-20 -20 -20 -20 -20 -20 -20 -20 -20 -20 -20 -20 -20 -20 -20 -20 -20 -20 -20 -20 -20 -20 -20 -20 -20 -20 -20 -20 -20 -20 -20 -20 -20 -20 -20 -20 -20 -20 -20 -20 -20 -20 -20
-20 -20 -20 -20 -20 -20 -20 -20 -20 -20 -20 -20 -20 -20 -20 -20 -20 -20 -20 -20 -20 -20 -20 -20 -20 -20 -20 -20 -20 -20 -20 -20 -20 -20 -20 -20 -20 -20 -20 -20 -20 -20 -20
Wind_Speed
5 5 5 4 4 4 4 4 4 4 5 6 5 5 6 4 5 3 2 7 10 12 11 10 10 10 9 9 9 9 10 9 10 10 9 10 9 9 9 9 9 9 9
6 7 6 6 5 5 5 5 5 5 5 5 5 6 6 4 5 5 4 4 10 11 12 12 11 12 11 11 11 11 10 10 9 9 10 9 8 9 8 8 8 8 8
7 8 7 7 7 6 6 4 5 4 4 3 6 5 4 5 5 5 5 4 5 11 12 14 13 14 13 12 12 11 11 11 10 10 9 9 8 8 7 7 7 7 7
8 7 7 7 7 6 6 5 5 4 4 4 4 5 4 4 6 6 5 4 4 4 8 13 15 16 16 15 14 13 12 11 10 10 9 9 8 7 7 6 5 5 5
10 9 8 7 7 6 6 5 5 4 4 4 5 5 5 5 6 5 7 6 6 5 4 9 12 13 15 17 16 15 14 13 12 11 10 9 8 7 7 6 5 4 3
6 6 5 7 7 5 6 4 6 4 4 5 4 4 4 5 4 5 7 7 6 7 6 7 5 6 12 16 17 16 15 14 14 12 11 10 9 8 7 7 6 5 4
6 6 4 4 5 7 10 9 6 7 5 3 3 2 2 5 6 5 5 7 7 8 6 6 5 4 6 15 16 17 17 15 14 13 12 12 11 9 8 7 7 6 5
6 5 5 6 7 8 6 7 7 4 4 6 4 1 3 4 5 8 5 7 9 7 8 8 6 6 6 4 7 16 18 17 15 14 13 12 11 11 9 7 7 6 6
7 7 7 5 5 7 8 9 8 9 9 3 4 5 1 7 1 1 7 7 7 6 6 7 8 7 6 5 8 9 13 15 15 14 13 13 12 11 9 7 8 8 8
6 6 7 7 9 7 8 8 8 10 5 6 2 7 3 3 5 4 2 2 3 6 5 4 7 8 9 7 8 10 12 13 15 14 13 12 11 11 9 9 8 9 9
5 7 8 9 9 6 8 9 6 8 7 9 5 2 4 2 1 3 5 3 3 4 5 8 9 8 10 8 6 8 14 15 16 14 12 12 10 11 8 9 8 9 9
4 4 6 7 7 5 6 6 8 8 9 8 6 6 7 5 9 6 3 4 4 3 4 5 8 7 6 6 10 16 17 18 16 14 11 9 7 10 8 7 8 9 12
3 5 5 4 3 5 5 4 5 7 7 7 9 8 8 8 2 3 6 5 5 3 3 2 2 3 5 6 4 8 15 15 9 8 11 10 10 7 6 7 10 11 13
3 5 6 6 6 5 5 3 3 4 4 6 8 7 7 7 6 7 8 6 4 4 2 6 1 2 4 7 12 19 12 16 13 10 9 9 4 6 7 9 14 13 14
3 4 5 6 6 6 5 3 1 3 2 4 5 6 5 4 3 5 5 5 8 4 4 4 3 1 1 4 11 8 6 14 14 13 12 10 12 13 12 13 15 15 16
5 5 5 5 6 6 6 6 4 4 4 2 2 4 3 0 2 2 3 2 2 6 4 2 3 4 1 1 7 6 6 13 13 12 14 14 14 13 15 17 17 18 16
6 6 6 6 6 7 7 6 5 5 5 4 5 5 4 4 1 1 1 0 2 2 5 2 2 2 3 4 4 4 5 2 3 13 14 12 13 17 20 18 17 17 17
6 6 5 6 7 7 7 6 6 6 7 8 6 6 5 4 4 4 3 3 3 1 2 3 0 1 3 0 3 4 5 4 3 9 15 15 18 17 17 16 18 17 17
6 7 7 8 7 7 7 7 7 8 8 6 6 6 4 4 4 3 3 3 3 2 2 1 1 2 1 2 1 2 3 4 4 11 12 13 15 16 18 15 15 16 17
6 6 7 6 6 6 6 7 7 6 6 7 7 6 6 5 4 3 3 2 1 2 2 2 1 1 1 2 0 1 2 2 2 5 9 10 9 9 13 14 14 14 12
6 6 7 8 8 9 6 6 6 7 8 8 8 8 7 8 8 6 3 3 3 3 2 2 2 1 1 1 1 1 0 0 2 2 2 1 1 3 4 11 12 15 15
7 9 10 9 8 6 13 12 9 7 7 6 6 7 8 11 12 13 10 8 5 2 3 2 1 2 2 1 1 2 2 1 1 1 1 3 3 5 5 4 12 13 13
8 8 8 7 7 7 13 14 13 7 6 5 5 4 5 5 7 6 9 9 10 10 6 2 1 1 1 1 2 1 1 2 2 2 1 4 3 5 4 6 12 13 12
6 5 6 7 6 7 12 12 12 5 4 3 3 3 3 3 3 4 3 4 5 5 4 2 1 1 2 3 3 4 3 2 2 3 4 4 1 4 4 4 12 13 12
5 4 4 5 5 5 10 10 7 4 4 4 3 3 4 3 5 7 4 4 4 4 7 8 5 4 4 5 3 3 0 2 3 3 1 1 2 3 3 3 3 4 2
4 4 3 3 5 3 7 7 4 2 3 3 4 5 8 5 7 7 4 3 3 2 4 5 5 6 6 5 7 1 3 3 2 3 2 1 3 3 5 2 2 3 3
Wind_Direction
186 180 200 196 202 188 198 205 215 225 231 233 235 229 247 196 203 199 210 195 176 178 180 180 178 179 173 170 164 157 149 140 134 129 122 117 114 104 96 91 90 90 88
190 195 196 206 215 204 203 200 204 210 226 215 225 222 235 206 207 197 203 205 188 186 189 191 189 191 187 182 177 170 166 155 147 142 137 131 127 119 110 102 96 94 91
192 192 198 205 212 208 203 206 219 208 233 233 234 218 213 222 210 208 205 204 200 194 195 201 199 198 195 193 189 181 178 169 163 156 153 146 142 135 127 118 110 104 103
193 196 205 209 208 203 204 199 209 217 215 207 227 224 214 216 213 208 205 206 209 206 207 208 205 203 203 199 196 192 187 182 175 171 169 163 162 158 152 146 138 128 120
200 197 207 210 190 202 204 202 212 189 194 211 225 227 224 219 215 198 208 209 209 209 204 223 212 209 207 207 204 201 197 193 187 185 183 181 176 178 173 171 177 175 164
215 215 219 213 188 193 215 203 212 199 194 200 209 218 238 242 225 220 208 210 210 209 208 208 210 210 200 214 214 210 205 202 198 197 197 198 196 190 195 191 193 207 211
220 213 216 219 205 205 217 211 205 205 228 173 115 287 272 241 246 225 215 213 214 213 209 211 205 194 204 208 217 215 211 205 206 208 207 206 207 208 208 221 214 223 238
232 223 213 213 203 230 218 211 199 215 238 186 172 70 264 311 251 228 202 214 215 203 210 210 206 199 199 200 201 216 216 213 215 217 217 213 212 214 219 226 243 242 259
226 222 222 212 215 222 226 217 212 202 234 238 239 167 118 227 343 272 233 214 207 199 209 211 208 208 208 207 204 213 213 219 224 224 225 217 219 217 218 230 251 255 263
243 235 230 217 223 211 220 220 216 218 201 217 218 247 284 157 193 302 292 278 209 219 201 199 206 212 211 204 199 190 200 215 223 231 228 222 222 225 223 240 250 266 271
263 242 236 241 227 213 216 216 209 206 207 223 195 158 228 250 250 203 270 292 291 230 202 199 202 210 209 198 192 199 200 207 224 219 225 220 219 242 243 253 262 281 297
301 327 271 237 234 227 206 207 212 205 209 223 208 205 200 191 222 209 237 267 253 241 227 215 213 206 195 193 196 197 193 203 213 220 216 230 241 257 254 281 301 303 293
359 347 345 327 252 228 241 207 200 209 203 208 213 220 227 233 215 205 228 236 241 269 297 252 215 190 173 151 168 190 187 192 195 218 226 223 236 274 302 293 291 289 292
343 343 346 0 6 346 298 257 195 218 201 213 210 216 224 228 211 221 226 206 218 201 177 256 301 270 173 171 174 173 179 184 192 200 225 226 239 262 273 276 272 273 279
357 7 4 359 2 8 4 339 31 306 222 225 226 221 219 240 230 232 235 216 240 249 228 215 180 347 61 159 170 147 150 176 181 176 205 238 245 249 253 264 267 266 266
22 21 16 20 15 18 15 29 35 28 18 10 328 247 222 265 198 173 195 230 248 255 272 160 186 108 36 154 162 145 152 175 188 211 229 228 245 251 260 262 262 262 267
24 29 18 23 24 23 17 38 46 34 53 42 28 6 39 23 55 24 20 65 196 175 265 20 330 160 134 167 146 127 141 149 202 226 239 231 251 263 265 263 265 271 273
28 30 30 37 29 24 21 28 43 36 43 42 38 47 37 30 40 25 17 351 328 270 195 212 87 273 96 310 113 129 156 182 201 231 241 245 256 269 267 268 265 265 272
35 31 35 37 32 27 30 26 39 48 54 47 36 46 32 31 36 13 15 8 354 11 1 44 47 26 45 119 123 123 147 220 229 245 258 258 253 254 256 266 274 271 272
48 41 38 38 39 40 36 39 46 54 57 53 48 47 43 47 52 59 65 74 68 100 69 110 121 155 155 101 156 133 193 195 237 252 241 244 254 280 279 282 279 275 286
43 53 54 43 36 39 40 37 43 50 54 53 45 39 40 61 78 74 70 44 44 40 60 53 77 31 53 87 172 95 137 279 245 226 275 306 334 288 276 281 277 271 272
48 53 51 51 42 51 55 63 66 64 60 56 54 42 35 40 37 58 72 81 82 43 40 30 51 55 68 67 122 185 176 100 310 339 268 276 223 260 250 253 265 265 264
55 51 43 36 50 54 58 61 67 57 60 55 58 56 58 43 43 35 27 29 25 32 48 86 73 69 37 49 94 64 122 145 222 264 240 274 217 260 252 262 276 275 268
58 52 51 43 42 54 61 66 70 52 53 38 49 69 75 33 37 52 29 9 10 1 354 3 103 164 190 186 175 171 183 209 279 259 199 255 267 263 268 254 275 270 261
63 50 48 50 47 15 74 76 75 43 34 8 7 11 59 23 359 42 57 23 8 2 9 53 47 2 328 330 300 118 163 93 293 261 226 250 313 298 294 310 317 216 90
76 57 27 27 34 354 59 72 63 35 32 11 4 9 11 25 13 34 67 39 10 309 349 353 351 347 344 325 312 213 159 169 194 331 269 114 334 7 328 312 319 306 320